Temp
17 18 18 17 17 16 16 16 16 16 16 16 16 15 16 16 16 16 15 15 15 15 16 17 17 17 16 16 15 14 14 14 14 14 14 15 15 14 14 14 15 15 15
18 18 18 17 17 16 16 16 15 16 16 16 15 15 16 16 17 17 16 15 14 14 15 17 17 17 16 15 15 14 14 13 14 14 14 15 14 14 14 14 15 15 15
18 18 18 17 17 16 16 16 16 16 16 16 15 16 16 16 17 17 16 14 14 15 17 17 17 17 16 15 14 14 14 14 14 15 14 14 14 14 15 14 15 14 14
19 18 18 17 17 17 16 16 16 17 16 16 15 16 16 17 17 17 16 14 14 16 17 17 17 17 16 15 14 14 14 14 14 14 15 16 16 16 16 16 16 15 15
18 18 17 17 17 16 16 16 17 17 16 15 16 16 16 17 17 17 17 17 17 17 17 17 17 17 16 15 14 14 14 14 15 15 16 16 16 16 16 16 16 16 16
18 17 17 17 16 16 16 17 17 17 16 16 15 16 16 17 17 17 17 17 17 17 17 17 17 16 16 16 15 15 15 15 16 16 16 16 16 16 16 16 16 16 16
17 17 16 16 16 16 16 17 17 17 17 16 16 16 17 17 18 18 18 18 18 17 17 17 17 17 16 16 16 16 16 15 16 15 15 16 16 16 16 16 16 16 16
16 17 16 16 16 16 16 17 17 17 16 16 16 16 17 18 18 18 18 18 18 17 17 17 17 17 17 16 16 16 16 16 16 16 15 16 16 16 16 16 16 16 16
17 17 16 16 16 16 17 17 17 17 16 16 16 16 18 18 18 18 18 18 18 18 18 18 17 17 17 17 17 16 16 16 15 15 15 15 15 15 15 15 15 15 15
17 17 16 16 16 16 17 17 17 17 16 16 15 16 18 18 18 18 18 18 18 18 18 18 17 17 17 17 17 16 16 16 15 15 15 15 15 15 15 15 15 15 15
17 16 16 15 16 16 17 17 17 17 17 16 16 15 17 17 17 18 18 18 18 18 18 18 17 17 17 17 17 16 16 15 15 15 15 15 15 15 15 15 15 15 15
17 16 16 15 15 15 16 17 17 17 17 16 16 16 16 17 17 17 18 18 18 18 18 18 17 17 17 17 17 16 16 15 15 15 15 15 15 15 15 15 15 15 14
17 17 16 16 14 15 15 16 16 17 17 17 17 16 16 16 17 17 17 17 17 17 17 17 17 17 16 16 16 16 16 16 15 15 15 14 14 14 14 14 14 14 14
16 17 16 16 15 14 14 15 15 16 16 16 16 16 15 15 15 16 17 17 17 17 17 17 17 16 16 16 15 15 15 15 15 15 14 14 14 14 14 14 14 14 14
17 17 17 16 16 15 15 15 15 15 15 16 15 15 15 15 15 16 16 16 16 16 17 16 16 16 15 15 15 14 14 14 14 14 14 14 14 14 14 14 13 13 13
17 17 18 16 16 16 15 15 14 15 15 15 15 15 15 15 15 15 15 15 15 16 16 15 15 15 14 14 14 14 14 14 14 14 14 14 14 14 13 13 13 13 12
17 17 16 16 16 15 15 15 15 15 15 15 15 14 14 15 15 15 15 15 15 15 15 15 15 14 14 14 14 14 14 14 13 14 14 13 14 13 13 13 12 12 12
17 16 17 16 15 15 15 15 15 15 15 15 15 15 15 15 15 15 15 15 15 14 14 14 14 14 14 13 13 13 13 14 14 14 13 13 13 13 13 12 12 12 11
16 16 16 16 15 15 15 15 15 15 15 15 15 15 15 14 15 15 15 15 14 14 14 13 13 13 13 13 13 13 13 13 13 13 13 13 13 13 13 13 12 11 11
17 16 16 16 16 15 15 15 15 15 15 15 15 15 14 14 14 15 15 14 14 13 13 13 13 13 13 13 13 13 13 13 13 13 13 13 13 13 12 12 11 11 11
17 16 16 15 16 15 15 15 15 15 15 15 15 15 14 14 14 14 14 14 13 13 13 13 13 13 13 13 12 13 13 13 13 13 13 13 13 12 12 12 11 12 11
18 17 17 16 16 15 15 16 15 15 15 15 15 15 14 14 14 14 14 13 13 13 13 13 13 13 12 12 12 12 12 13 13 13 13 13 13 12 12 12 12 11 10
17 17 17 17 16 16 16 16 15 15 14 14 15 15 14 14 14 14 14 13 13 14 13 12 12 12 12 12 11 11 12 12 12 12 12 12 12 12 12 11 11 10 10
18 18 17 16 16 16 15 16 16 16 16 16 16 15 15 15 15 14 14 14 13 14 13 13 13 13 12 13 13 12 11 11 11 11 11 11 11 11 11 10 11 10 10
18 17 17 17 16 16 16 16 16 16 16 15 15 15 14 14 14 14 14 14 14 14 14 13 13 13 12 12 12 12 11 10 10 10 10 10 10 10 10 9 10 10 9
16 16 16 16 16 15 16 16 16 16 16 15 15 16 16 15 14 14 15 14 14 14 13 13 12 12 11 11 11 11 11 10 10 9 9 9 9 10 9 9 9 9 9
Height
1536 1538 1542 1546 1548 1549 1551 1552 1553 1553 1554 1554 1555 1557 1557 1557 1559 1560 1561 1562 1563 1563 1564 1564 1564 1565 1565 1566 1566 1567 1566 1565 1565 1565 1565 1565 1565 1564 1564 1563 1562 1561 1560
1532 1538 1541 1545 1547 1550 1552 1552 1553 1554 1554 1555 1557 1557 1558 1558 1559 1560 1562 1563 1564 1565 1565 1566 1566 1566 1568 1568 1569 1569 1568 1568 1567 1567 1568 1568 1568 1567 1566 1565 1564 1563 1563
1533 1537 1541 1544 1546 1549 1552 1552 1553 1554 1555 1557 1558 1559 1559 1559 1560 1561 1562 1564 1565 1565 1566 1567 1568 1568 1570 1570 1571 1571 1570 1570 1570 1570 1570 1570 1569 1569 1568 1567 1566 1566 1565
1534 1538 1541 1544 1546 1549 1552 1553 1554 1554 1556 1558 1559 1560 1560 1560 1560 1561 1562 1564 1565 1566 1568 1569 1570 1571 1572 1573 1573 1573 1573 1572 1572 1572 1572 1572 1571 1570 1569 1568 1567 1567 1566
1536 1539 1541 1544 1547 1549 1552 1553 1554 1555 1557 1559 1560 1561 1561 1562 1562 1563 1564 1566 1567 1568 1570 1571 1572 1573 1574 1575 1576 1575 1574 1574 1574 1574 1574 1573 1572 1571 1570 1569 1568 1567 1566
1539 1541 1542 1544 1547 1549 1551 1553 1555 1556 1558 1560 1561 1562 1563 1564 1565 1566 1567 1568 1569 1571 1572 1573 1574 1575 1576 1577 1577 1577 1576 1575 1575 1576 1575 1575 1574 1573 1572 1571 1569 1568 1567
1538 1542 1544 1545 1547 1549 1552 1553 1555 1557 1559 1560 1562 1563 1564 1566 1567 1568 1569 1570 1571 1573 1574 1575 1576 1577 1578 1578 1579 1579 1578 1577 1576 1577 1576 1576 1575 1574 1573 1572 1571 1570 1568
1540 1543 1545 1547 1548 1549 1551 1553 1556 1558 1559 1561 1563 1564 1565 1567 1568 1569 1571 1572 1573 1575 1576 1576 1577 1578 1579 1579 1580 1580 1579 1579 1577 1578 1577 1577 1576 1575 1574 1573 1572 1570 1569
1542 1544 1545 1547 1549 1551 1551 1553 1556 1558 1560 1562 1564 1565 1566 1568 1569 1571 1572 1573 1575 1576 1577 1578 1579 1579 1580 1580 1580 1580 1580 1580 1578 1578 1577 1577 1577 1576 1575 1574 1572 1571 1570
1542 1544 1546 1547 1549 1551 1552 1554 1556 1559 1561 1563 1564 1565 1567 1569 1571 1572 1573 1574 1576 1576 1577 1578 1579 1580 1580 1581 1581 1580 1580 1580 1579 1577 1577 1577 1577 1576 1575 1574 1573 1571 1570
1539 1542 1545 1548 1550 1552 1553 1555 1557 1559 1561 1563 1565 1566 1567 1569 1571 1572 1574 1575 1576 1577 1578 1578 1579 1579 1580 1580 1580 1580 1580 1579 1578 1577 1578 1577 1577 1576 1575 1574 1573 1571 1570
1538 1540 1546 1549 1551 1552 1553 1555 1557 1559 1561 1563 1565 1567 1567 1568 1570 1572 1573 1574 1576 1577 1578 1578 1578 1579 1579 1579 1579 1579 1579 1578 1578 1577 1577 1577 1577 1576 1575 1574 1573 1571 1570
1540 1540 1545 1550 1552 1552 1553 1555 1557 1559 1561 1563 1565 1567 1567 1568 1569 1571 1572 1573 1574 1575 1576 1577 1577 1577 1577 1578 1578 1577 1577 1577 1577 1576 1576 1576 1576 1575 1574 1573 1572 1571 1569
1536 1539 1544 1549 1551 1553 1554 1556 1558 1559 1560 1563 1564 1566 1567 1567 1568 1570 1570 1572 1573 1573 1574 1575 1575 1575 1576 1576 1576 1576 1575 1576 1576 1576 1575 1575 1575 1574 1573 1572 1570 1570 1569
1532 1538 1542 1546 1549 1553 1554 1555 1556 1559 1560 1562 1563 1565 1566 1567 1569 1569 1570 1570 1571 1572 1572 1573 1573 1574 1574 1574 1575 1574 1574 1574 1574 1574 1574 1573 1573 1572 1571 1570 1569 1568 1567
1530 1538 1539 1545 1548 1551 1553 1554 1556 1558 1560 1560 1563 1565 1566 1566 1567 1568 1568 1569 1570 1570 1571 1572 1573 1574 1574 1574 1574 1573 1573 1572 1572 1572 1571 1571 1570 1570 1569 1568 1568 1567 1565
1528 1536 1541 1543 1545 1547 1551 1553 1555 1557 1559 1561 1562 1564 1565 1565 1565 1566 1567 1568 1569 1569 1570 1571 1572 1572 1572 1573 1573 1572 1572 1571 1570 1570 1569 1568 1567 1567 1566 1566 1566 1565 1563
1527 1530 1535 1539 1543 1545 1549 1550 1553 1555 1557 1559 1560 1562 1563 1563 1563 1564 1565 1567 1567 1568 1568 1568 1569 1569 1570 1570 1570 1570 1570 1569 1569 1568 1567 1566 1565 1564 1563 1563 1562 1561 1560
1524 1528 1533 1537 1541 1543 1546 1548 1550 1552 1554 1556 1557 1559 1560 1561 1561 1562 1563 1565 1566 1566 1565 1567 1567 1567 1567 1567 1567 1567 1566 1566 1565 1565 1564 1563 1561 1561 1560 1559 1558 1557 1556
1524 1526 1529 1533 1538 1540 1541 1544 1547 1549 1551 1553 1555 1557 1558 1559 1560 1560 1561 1562 1564 1565 1565 1564 1565 1565 1565 1564 1563 1562 1561 1561 1560 1559 1558 1558 1558 1556 1555 1555 1554 1554 1552
1520 1523 1526 1529 1533 1535 1537 1539 1543 1545 1549 1550 1552 1553 1555 1557 1558 1558 1559 1560 1562 1563 1563 1562 1561 1561 1561 1560 1558 1558 1556 1555 1555 1554 1553 1553 1553 1551 1551 1550 1550 1550 1548
1516 1519 1524 1527 1528 1531 1533 1535 1538 1542 1543 1546 1549 1551 1552 1554 1555 1556 1557 1557 1558 1559 1558 1558 1557 1557 1556 1556 1555 1553 1550 1549 1548 1548 1548 1547 1548 1547 1546 1546 1546 1545 1544
1512 1515 1517 1520 1523 1528 1529 1531 1533 1537 1539 1540 1544 1546 1547 1550 1551 1553 1553 1553 1554 1554 1553 1553 1552 1552 1551 1550 1551 1551 1548 1544 1543 1544 1543 1544 1544 1543 1543 1542 1541 1540 1540
1510 1512 1514 1516 1518 1523 1525 1528 1530 1531 1533 1536 1539 1541 1543 1545 1547 1548 1548 1548 1549 1549 1548 1548 1546 1546 1545 1544 1544 1543 1543 1542 1541 1538 1539 1539 1541 1540 1540 1538 1536 1536 1535
1505 1508 1512 1514 1515 1516 1520 1523 1525 1529 1532 1533 1534 1536 1538 1540 1542 1544 1544 1544 1544 1543 1543 1542 1540 1540 1539 1539 1538 1538 1537 1536 1536 1536 1534 1535 1536 1536 1535 1533 1532 1531 1531
1503 1506 1508 1510 1513 1515 1517 1520 1521 1525 1527 1529 1530 1531 1532 1534 1537 1538 1538 1538 1538 1537 1536 1536 1535 1534 1534 1533 1532 1532 1531 1532 1530 1532 1531 1531 1531 1531 1529 1528 1528 1527 1526
Wind_Speed
21 24 21 19 16 14 12 12 9 10 12 15 19 17 15 15 16 17 20 19 18 17 15 12 14 17 20 22 24 25 24 23 21 22 19 19 19 19 18 19 20 20 19
28 25 22 20 17 15 15 11 9 11 14 19 19 16 13 14 13 14 15 15 15 14 13 15 17 20 21 23 24 23 22 21 21 20 20 19 19 17 18 18 17 18 18
28 27 23 20 18 15 14 10 10 13 18 21 18 14 13 13 13 14 16 17 16 11 15 17 19 20 22 24 23 20 19 20 17 16 15 17 15 11 12 13 14 14 14
29 27 24 21 19 15 12 11 13 18 22 21 17 13 14 14 15 16 18 18 17 17 19 19 19 20 21 23 22 19 17 16 13 11 11 11 12 11 12 11 11 10 9
28 27 25 22 18 15 13 14 17 20 23 20 16 14 16 16 17 19 20 19 20 19 19 19 19 19 20 21 20 18 17 15 11 11 12 12 13 14 13 12 12 11 10
26 25 24 22 18 15 15 15 18 22 22 20 16 15 16 17 18 19 19 19 19 19 18 18 18 18 17 17 16 13 12 11 12 12 13 13 12 13 13 13 13 12 11
26 24 22 21 18 16 16 15 18 22 22 20 16 15 15 16 18 19 19 18 18 17 16 15 15 14 14 14 12 12 11 10 10 10 11 11 12 12 12 13 13 13 11
22 22 22 21 17 19 16 16 18 22 22 21 19 13 14 16 17 17 17 16 15 14 13 12 12 11 11 10 10 8 7 8 7 8 9 10 10 10 11 11 11 11 11
18 21 23 20 18 17 16 16 19 20 21 20 20 14 14 15 16 15 14 13 12 11 10 9 8 7 7 7 7 6 5 6 6 6 7 9 10 9 9 9 10 10 10
18 17 22 20 18 17 15 15 18 19 19 19 19 16 14 13 12 13 11 11 10 9 7 6 5 4 4 3 4 4 2 2 3 5 7 8 9 9 9 9 9 9 9
18 20 20 19 17 16 14 13 16 17 18 20 18 14 11 9 10 10 9 8 6 5 4 4 2 1 1 1 1 2 1 1 3 6 7 8 9 10 10 10 10 10 9
18 16 17 16 15 16 14 12 13 14 15 16 15 12 10 10 8 8 6 5 4 4 3 3 2 2 2 2 2 2 2 4 5 6 7 8 9 11 10 10 10 10 10
16 16 16 15 14 14 15 12 12 12 12 12 11 10 8 8 4 4 3 3 4 4 4 4 4 3 3 4 5 5 5 5 6 8 8 9 9 10 11 11 10 10 11
18 16 19 16 16 13 9 11 11 8 10 11 12 12 9 7 6 6 5 5 4 5 4 5 4 5 5 5 6 6 7 7 6 6 8 9 10 10 10 11 12 11 11
20 18 17 16 16 16 15 11 9 7 5 7 7 10 11 11 11 9 8 6 5 5 5 5 4 5 7 6 7 9 8 8 9 9 11 12 12 12 12 12 12 14 13
26 27 23 20 20 19 17 17 16 13 12 7 9 10 14 13 10 9 9 8 7 6 6 7 7 6 6 7 8 9 10 11 11 12 13 14 15 15 15 14 14 13 14
25 22 25 23 21 21 19 16 20 19 14 14 12 13 11 14 13 11 11 10 9 8 7 8 7 8 10 11 12 11 10 10 11 14 15 17 17 18 19 18 18 16 16
24 25 22 23 22 21 19 18 18 18 18 16 16 17 14 12 15 13 11 11 9 8 7 7 8 10 9 9 10 11 12 13 14 16 18 19 19 19 20 20 20 19 19
25 25 24 26 24 24 22 20 19 20 18 18 16 14 13 12 9 11 10 10 10 10 10 10 10 10 11 12 14 15 17 18 19 19 21 22 21 19 19 20 20 19 19
20 20 21 23 24 22 22 19 18 24 19 17 17 16 15 14 11 10 9 10 8 8 11 12 13 14 16 17 18 19 21 22 22 22 23 22 18 21 18 18 18 20 19
18 22 21 24 23 21 24 23 22 21 21 23 20 18 16 14 12 13 12 10 12 15 15 16 16 17 18 17 19 21 23 21 23 22 19 20 21 21 19 17 17 16 15
17 21 22 22 25 24 21 22 21 20 21 20 20 20 16 16 15 14 15 16 16 17 17 18 19 19 20 18 19 21 26 25 20 19 14 14 17 22 19 17 16 16 16
20 21 23 23 22 24 22 22 21 21 22 22 21 20 22 23 22 21 21 22 22 20 20 21 21 23 25 24 22 21 15 8 10 10 12 15 15 17 18 17 17 16 19
20 19 21 24 24 23 22 25 25 24 22 19 17 17 18 18 18 20 22 21 21 22 22 24 24 25 25 25 24 22 23 25 17 15 12 10 17 17 18 19 22 20 16
23 23 22 23 26 25 23 23 24 21 21 20 22 21 20 20 19 18 20 21 22 21 22 23 23 23 24 23 22 21 22 24 23 22 22 20 19 21 20 20 21 17 15
24 23 23 24 25 26 25 26 24 23 23 24 24 22 19 19 20 19 19 20 21 22 22 22 22 21 21 21 20 20 21 21 18 14 19 21 21 15 18 20 19 18 15
Wind_Direction
173 163 156 150 144 139 128 114 119 120 105 105 107 99 102 112 119 117 106 108 105 106 101 86 89 90 94 93 95 95 89 83 78 71 80 79 77 70 61 61 61 61 61
159 161 155 149 142 134 135 129 126 113 109 113 109 115 98 106 120 128 130 119 113 106 101 91 92 94 95 97 100 96 90 84 76 78 80 79 73 69 65 62 61 61 58
159 157 154 148 144 142 144 131 126 123 118 118 118 111 99 99 112 126 131 119 113 120 106 100 98 99 98 105 103 96 89 85 80 78 86 86 84 74 60 55 56 58 60
155 155 153 148 143 145 140 127 123 125 126 121 121 108 99 98 105 116 122 117 118 111 106 103 104 101 102 109 107 97 89 89 83 63 65 61 61 60 50 41 42 44 55
156 154 150 146 146 146 140 132 126 129 131 126 121 111 103 99 101 109 113 114 110 109 105 103 102 102 103 109 108 101 97 92 91 71 63 60 55 54 49 46 45 41 38
154 152 148 146 149 148 141 135 131 135 136 130 125 115 109 105 105 108 110 109 107 106 105 105 106 105 104 108 111 104 97 85 80 68 60 55 50 51 48 46 45 44 42
151 155 153 150 154 148 142 138 138 139 139 133 131 125 119 114 112 112 114 114 114 113 111 109 108 107 104 102 101 98 98 92 70 59 56 47 42 42 42 42 42 42 42
156 161 157 157 157 152 145 142 145 146 144 140 135 142 133 127 120 118 118 119 118 117 115 112 109 107 103 99 94 90 82 70 48 64 56 38 31 28 32 35 36 36 37
177 168 163 164 162 156 148 148 151 154 153 150 146 153 141 134 131 127 125 122 121 121 120 115 109 104 99 94 90 89 82 64 43 31 29 23 16 11 14 20 24 24 27
181 184 171 166 166 163 155 151 156 161 161 160 156 158 134 133 135 130 129 128 131 131 131 128 121 109 94 84 83 80 73 42 35 0 359 359 356 353 356 1 6 12 13
172 176 174 170 169 168 163 154 161 162 165 169 166 163 149 141 146 141 140 140 142 148 151 152 144 127 109 92 78 65 56 347 339 339 332 333 335 342 345 347 350 352 355
163 156 175 181 181 176 170 163 162 171 166 161 163 169 165 159 155 158 159 165 171 176 185 199 207 237 266 280 280 321 295 320 325 309 318 321 327 335 338 341 341 341 342
172 173 175 179 188 188 178 170 165 167 179 178 172 165 181 183 180 190 217 226 218 225 221 226 230 246 275 302 317 318 307 318 315 298 310 319 324 328 328 336 339 338 336
175 181 178 197 196 196 197 178 154 152 175 172 172 167 193 202 240 252 226 229 233 232 236 240 248 270 289 320 322 318 322 318 310 307 306 314 318 321 323 325 328 330 328
178 196 199 199 199 201 197 203 179 185 213 201 202 189 197 217 228 235 228 226 236 232 252 269 279 296 298 305 308 318 316 311 314 312 311 315 317 318 314 315 313 316 317
201 206 219 215 211 204 214 200 191 204 210 231 230 222 215 217 221 227 229 240 251 259 263 264 264 263 273 282 287 293 301 304 306 309 310 310 311 312 313 313 307 303 304
192 199 206 206 203 207 209 211 197 189 203 220 231 230 241 234 228 231 233 230 233 244 245 248 248 257 267 277 281 283 290 301 307 311 311 308 306 306 311 311 311 310 307
196 197 207 206 215 215 209 215 204 197 207 217 223 232 253 242 235 235 234 235 236 243 252 257 266 268 273 284 298 302 299 294 289 295 292 292 298 295 302 299 305 307 314
198 206 205 209 211 216 215 221 206 206 206 213 215 234 246 236 240 230 230 227 232 241 250 267 280 277 277 275 277 277 279 276 275 279 282 280 286 290 292 298 296 300 305
195 195 200 198 207 211 211 208 207 217 206 212 217 222 226 241 255 242 236 238 243 253 250 252 260 267 272 276 280 279 282 282 280 277 276 279 280 282 280 277 279 293 295
202 204 206 206 204 203 200 205 210 217 219 217 214 211 220 230 240 243 256 253 239 247 251 257 260 268 272 274 281 286 285 290 293 288 283 278 272 275 278 268 274 299 299
204 209 212 214 212 214 211 215 219 216 217 217 217 219 218 226 237 238 243 250 251 249 256 256 257 263 268 274 278 286 293 296 288 289 279 266 266 265 267 266 288 305 298
207 211 218 217 214 214 214 213 218 217 222 221 221 217 224 230 236 238 243 251 252 250 252 261 263 266 269 270 268 272 285 271 290 262 270 292 270 266 271 283 283 287 293
217 217 217 219 220 221 218 219 218 222 219 215 218 222 225 233 240 247 255 257 262 261 266 267 268 271 270 273 275 266 259 263 279 285 295 277 256 264 275 267 283 289 295
226 216 216 217 221 224 217 220 227 226 224 224 220 225 232 239 243 246 253 258 263 268 269 270 271 274 276 277 275 274 269 264 263 265 278 273 264 268 271 264 278 276 277
212 212 216 220 220 225 224 221 223 228 234 233 231 228 235 242 251 256 257 260 266 269 273 273 274 274 274 275 274 272 271 270 267 259 265 267 282 276 260 242 255 261 276